Location: Newark
(39.6867°N, 100.6772°W)
Time: 05:37:17
(UTC+00:00)

Explorer 11/Cluster Stage 4 - Pass Details

Date: 26 October 2019
Orbit: 467 x 1259 km, 28.8° (Epoch: 17 November)

Event Time Altitude Azimuth Distance (km) Brightness Sun altitude
Rises 14:22:53 0° 240° (WSW) 2,796 9.1 13.1°
Reaches altitude 10° 14:25:59 10° 219° (SW) 1,777 8.4 13.6°
Maximum altitude 14:28:31 16° 179° (S) 1,353 8.3 14.1°
Drops below altitude 10° 14:30:54 10° 139° (SE) 1,646 10.0 14.5°
Sets 14:33:37 0° 117° (ESE) 2,488 11.1 14.9°
